Location: Gellin
(53.4498°N, 14.3207°E)
Time: 23:32:23
(UTC+00:00)

Cosmos 2333 - Pass Details

Date: 03 March 2021
Orbit: 829 x 867 km, 70.9° (Epoch: 12 April)

Event Time Altitude Azimuth Distance (km) Brightness Sun altitude
Rises 18:32:26 0° 188° (S) 3,378 7.3 -16.8°
Reaches altitude 10° 18:34:57 10° 182° (S) 2,453 6.5 -17.1°
Maximum altitude 18:40:16 45° 111° (ESE) 1,145 4.4 -17.9°
Drops below altitude 10° 18:45:40 10° 41° (NE) 2,493 6.4 -18.7°
Sets 18:48:14 0° 35° (NE) 3,439 7.2 -19.0°
